Location: Bothwell
(42.3833°S, 147.0000°E)
Time: 00:59:52
(UTC+10:00)

ITAMSAT 1 - Visible Passes

Search period start: 01 October 2022 23:00
Search period end: 12 October 2022 00:00
Orbit: 782 x 797 km, 98.9° (Epoch: 01 October)

Date Brightness Start Highest point End Pass type
(mag) Time Alt. Az. Time Alt. Az. Time Alt. Az.
02 Oct 8.4 20:36:39 10° SE 20:41:17 30° E 20:43:35 22° NE visible
02 Oct 9.1 22:15:56 10° S 22:20:43 36° WSW 22:24:19 16° NW visible
03 Oct 9.1 20:08:09 10° SE 20:11:25 16° E 20:13:49 13° ENE visible
03 Oct 8.0 21:46:03 10° S 21:51:19 65° WSW 21:54:33 23° NNW visible
04 Oct 7.6 21:16:28 10° SSE 21:21:47 70° ENE 21:24:46 26° N visible
04 Oct 10.2 22:57:18 10° SSW 23:00:37 17° WSW 23:03:54 10° W visible
05 Oct 8.2 20:47:11 10° SSE 20:52:06 37° E 20:55:00 21° NNE visible
05 Oct 9.5 22:26:52 10° S 22:31:23 29° WSW 22:35:43 11° WNW visible
06 Oct 8.9 20:18:25 10° SE 20:22:18 20° E 20:25:12 13° NE visible
06 Oct 8.4 21:56:52 10° S 22:02:01 52° WSW 22:05:56 17° NW visible
07 Oct 9.5 19:51:36 10° E 19:52:21 10° E 19:53:05 10° E visible
07 Oct 7.6 21:27:11 10° SSE 21:32:32 86° ENE 21:36:08 21° NNW visible
07 Oct 10.5 23:08:34 10° SSW 23:11:12 14° WSW 23:13:50 10° W visible
08 Oct 7.9 20:57:47 10° SSE 21:02:53 46° E 21:06:21 19° NNE visible
08 Oct 9.8 22:37:50 10° S 22:42:01 24° WSW 22:46:10 10° WNW visible
09 Oct 8.7 20:28:48 10° SE 20:33:08 25° E 20:36:33 14° NE visible
09 Oct 8.8 22:07:43 10° S 22:12:42 42° WSW 22:17:17 12° NW visible
10 Oct 9.3 20:00:44 10° ESE 20:03:13 13° E 20:05:41 10° ENE visible
10 Oct 7.7 21:37:56 10° S 21:43:15 78° WSW 21:47:28 16° NNW visible
10 Oct 10.6 23:20:11 10° SW 23:21:46 11° SW 23:23:22 10° WSW visible
11 Oct 7.7 21:08:26 10° SSE 21:13:40 58° E 21:17:40 17° N visible
11 Oct 10.0 22:48:53 10° SSW 22:52:39 20° WSW 22:56:22 10° WNW visible
